Valdosta Regional, GA

11:22 AM EST on January 20, 2018 (GMT -0500)
Valdosta Regional

Weather History for KVLD - October, 2012

Change the Weather History Date:

Monday, October 29, 2012

  Actual Average Record
Temperature  
Mean Temperature 57 °F 65 °F  
Max Temperature 68 °F 77 °F 87 °F (1996)
Min Temperature 45 °F 52 °F 30 °F (2008)
Degree Days  
Heating Degree Days 8 3  
Month to date heating degree days 12 34  
Since 1 July heating degree days 12 35  
Cooling Degree Days 0 3  
Month to date cooling degree days 245 150  
Year to date cooling degree days 3165 2375  
Growing Degree Days 6 (Base 50)    
Moisture  
Dew Point 33 °F    
Average Humidity 49    
Maximum Humidity 76    
Minimum Humidity 22    
Precipitation  
Precipitation 0.00 in 0.10 in 0.89 in (2002)
Month to date precipitation 1.12 3.01  
Year to date precipitation 39.50 44.68  
Sea Level Pressure  
Sea Level Pressure 29.85 in    
Wind  
Wind Speed 6 mph (NW)    
Max Wind Speed 14 mph    
Max Gust Speed 25 mph    
Visibility 10 miles    
Events      
T = Trace of Precipitation, MM = Missing Value Source: NWS Daily Summary

Daily Weather History Graph

Daily Weather History Graph

Search for Another Location

Airport or City:

Trip Planner

Search our weather history database for the weather conditions in past years. The results will help you decide how hot, cold, wet, or windy it might be!

Date:

Astronomy

Oct. 29, 2012 Rise Set
Actual Time 7:46 AM EDT 6:47 PM EDT
Civil Twilight 7:21 AM EDT 7:11 PM EDT
Nautical Twilight 6:52 AM EDT 7:40 PM EDT
Astronomical Twilight 6:24 AM EDT 8:08 PM EDT
Moon 6:41 PM EDT (10/29) 7:33 AM EDT (10/29)
Length of Visible Light 11h 50m
Length of Day
11h 01m
Full, 100% of the Moon is Illuminated
Oct 29
Full
Oct 29
Full
Nov 6
Last Quarter
Nov 13
New
Nov 20
First Quarter

Hourly Weather History & Observations

Time (EDT) Temp. Windchill Dew Point Humidity Pressure Visibility Wind Dir Wind Speed Gust Speed Precip Events Conditions
12:53 AM 54.0 °F - 41.0 °F 62% 29.86 in 10.0 mi Variable 4.6 mph - N/A   Clear
1:53 AM 52.0 °F - 39.9 °F 63% 29.87 in 10.0 mi NW 5.8 mph - N/A   Clear
2:53 AM 51.1 °F - 37.9 °F 61% 29.87 in 10.0 mi NW 5.8 mph - N/A   Clear
3:53 AM 48.9 °F - 37.0 °F 64% 29.87 in 10.0 mi Variable 4.6 mph - N/A   Clear
4:53 AM 48.0 °F - 36.0 °F 63% 29.86 in 10.0 mi Variable 4.6 mph - N/A   Clear
5:53 AM 46.9 °F - 36.0 °F 66% 29.87 in 10.0 mi WNW 4.6 mph - N/A   Clear
6:53 AM 46.0 °F 43.1 °F 37.0 °F 71% 29.88 in 10.0 mi Variable 5.8 mph - N/A   Clear
7:53 AM 45.0 °F 41.8 °F 37.0 °F 74% 29.90 in 10.0 mi NW 5.8 mph - N/A   Clear
8:53 AM 48.9 °F - 37.0 °F 64% 29.91 in 10.0 mi Variable 5.8 mph - N/A   Clear
9:53 AM 52.0 °F - 36.0 °F 54% 29.92 in 10.0 mi NNW 9.2 mph 17.3 mph N/A   Clear
10:53 AM 55.9 °F - 36.0 °F 47% 29.92 in 10.0 mi NW 8.1 mph - N/A   Clear
11:53 AM 59.0 °F - 36.0 °F 42% 29.90 in 10.0 mi Variable 5.8 mph - N/A   Clear
12:53 PM 61.0 °F - 32.0 °F 34% 29.87 in 10.0 mi NW 11.5 mph 19.6 mph N/A   Clear
1:53 PM 64.0 °F - 33.1 °F 31% 29.83 in 10.0 mi WNW 10.4 mph 20.7 mph N/A   Clear
2:53 PM 66.9 °F - 32.0 °F 27% 29.80 in 10.0 mi NW 8.1 mph - N/A   Clear
3:53 PM 66.9 °F - 28.9 °F 24% 29.78 in 10.0 mi NW 10.4 mph 21.9 mph N/A   Clear
4:53 PM 66.0 °F - 27.0 °F 23% 29.77 in 10.0 mi Variable 6.9 mph 20.7 mph N/A   Clear
5:53 PM 63.0 °F - 28.0 °F 27% 29.78 in 10.0 mi WNW 8.1 mph - N/A   Clear
6:53 PM 59.0 °F - 25.0 °F 27% 29.79 in 10.0 mi NW 6.9 mph - N/A   Clear
7:53 PM 55.9 °F - 28.0 °F 34% 29.81 in 10.0 mi Variable 3.5 mph - N/A   Clear
8:53 PM 54.0 °F - 28.0 °F 37% 29.83 in 10.0 mi Variable 4.6 mph - N/A   Clear
9:53 PM 53.1 °F - 28.0 °F 38% 29.86 in 10.0 mi Variable 3.5 mph - N/A   Clear
10:53 PM 53.1 °F - 28.0 °F 38% 29.87 in 10.0 mi WNW 5.8 mph - N/A   Clear
11:53 PM 51.1 °F - 27.0 °F 39% 29.87 in 10.0 mi Variable 4.6 mph - N/A   Clear